Location: Altleiningen
(49.5078°N, 8.0741°E)
Time: 03:30:10
(UTC+00:00)

FALCON 9 DEB - Pass Details

Date: 03 March 2021
Orbit: 367 x 387 km, 53.0° (Epoch: 11 April)

Event Time Altitude Azimuth Distance (km) Brightness Sun altitude
Rises 16:21:29 0° 246° (WSW) 2,278 9.3 7.4°
Reaches altitude 10° 16:23:32 10° 246° (WSW) 1,425 8.8 7.1°
Maximum altitude 16:26:44 89° 337° (NNW) 397 3.1 6.6°
Drops below altitude 10° 16:29:56 10° 67° (ENE) 1,430 5.1 6.1°
Enters shadow 16:33:26 -5° 68° (ENE) 2,882 6.6 5.6°
Exits shadow 17:09:36 -80° 82° (E) 12,932 10.4 -0.1°
